Time,TemperatureF,DewpointF,PressureIn,WindDirection,WindDirectionDegrees,WindSpeedMPH,WindSpeedGustMPH,Humidity,HourlyPrecipIn,Conditions,Clouds,dailyrainin,SoftwareType,DateUTC
2013-08-30 00:00:00,81.1,71.7,29.99,North,0,0.0,0.0,73,0.00,,,0.00,WUHU21623XXSP,2013-08-30 05:00:00,
2013-08-30 00:05:00,81.1,71.7,29.99,North,0,0.0,0.0,73,0.00,,,0.00,WUHU21623XXSP,2013-08-30 05:05:00,
2013-08-30 00:07:00,81.1,71.7,29.99,North,0,0.0,0.0,73,0.00,,,0.00,WUHU21623XXSP,2013-08-30 05:07:00,
2013-08-30 00:12:00,81.0,71.7,29.99,North,0,0.0,0.0,73,0.00,,,0.00,WUHU21623XXSP,2013-08-30 05:12:00,
2013-08-30 00:17:00,81.0,71.5,29.99,North,0,0.0,0.0,73,0.00,,,0.00,WUHU21623XXSP,2013-08-30 05:17:00,
2013-08-30 00:22:00,80.8,71.3,29.99,North,0,0.0,0.0,73,0.00,,,0.00,WUHU21623XXSP,2013-08-30 05:22:00,
2013-08-30 00:27:00,80.8,71.3,29.99,North,0,0.0,0.0,73,0.00,,,0.00,WUHU21623XXSP,2013-08-30 05:27:00,
2013-08-30 00:32:00,80.6,71.2,29.99,North,0,0.0,0.0,73,0.00,,,0.00,WUHU21623XXSP,2013-08-30 05:32:00,
2013-08-30 00:37:00,80.6,71.6,29.99,North,0,0.0,0.0,74,0.00,,,0.00,WUHU21623XXSP,2013-08-30 05:37:00,
2013-08-30 00:42:00,80.6,71.6,29.98,North,0,0.0,0.0,74,0.00,,,0.00,WUHU21623XXSP,2013-08-30 05:42:00,
2013-08-30 00:47:00,80.8,71.7,29.98,North,0,0.0,0.0,74,0.00,,,0.00,WUHU21623XXSP,2013-08-30 05:47:00,
2013-08-30 00:52:00,81.0,71.9,29.98,North,0,0.0,0.0,74,0.00,,,0.00,WUHU21623XXSP,2013-08-30 05:52:00,
2013-08-30 00:55:00,81.0,71.9,29.99,North,0,0.0,0.0,74,0.00,,,0.00,WUHU21623XXSP,2013-08-30 05:55:00,
2013-08-30 01:00:00,81.0,71.9,29.98,North,0,0.0,0.0,74,0.00,,,0.00,WUHU21623XXSP,2013-08-30 06:00:00,
2013-08-30 01:05:00,81.1,72.1,29.98,North,0,0.0,0.0,74,0.00,,,0.00,WUHU21623XXSP,2013-08-30 06:05:00,
2013-08-30 01:10:00,81.1,72.1,29.98,North,0,0.0,0.0,74,0.00,,,0.00,WUHU21623XXSP,2013-08-30 06:10:00,
2013-08-30 01:15:00,81.0,71.9,29.98,North,0,0.0,0.0,74,0.00,,,0.00,WUHU21623XXSP,2013-08-30 06:15:00,
2013-08-30 01:20:00,81.0,71.9,29.98,North,0,0.0,0.0,74,0.00,,,0.00,WUHU21623XXSP,2013-08-30 06:20:00,
2013-08-30 01:25:00,81.0,71.9,29.99,North,0,0.0,0.0,74,0.00,,,0.00,WUHU21623XXSP,2013-08-30 06:25:00,
2013-08-30 01:30:00,81.0,71.9,29.99,North,0,0.0,0.0,74,0.00,,,0.00,WUHU21623XXSP,2013-08-30 06:30:00,
2013-08-30 01:35:00,80.8,71.7,29.99,North,0,0.0,0.0,74,0.00,,,0.00,WUHU21623XXSP,2013-08-30 06:35:00,
2013-08-30 01:40:00,80.8,71.7,29.98,North,0,0.0,0.0,74,0.00,,,0.00,WUHU21623XXSP,2013-08-30 06:40:00,
2013-08-30 01:45:00,80.6,71.6,29.99,North,0,0.0,0.0,74,0.00,,,0.00,WUHU21623XXSP,2013-08-30 06:45:00,
2013-08-30 01:50:00,80.4,71.8,29.99,North,0,0.0,0.0,75,0.00,,,0.00,WUHU21623XXSP,2013-08-30 06:50:00,
2013-08-30 01:55:00,80.4,71.8,29.99,North,0,0.0,0.0,75,0.00,,,0.00,WUHU21623XXSP,2013-08-30 06:55:00,
2013-08-30 02:00:00,80.2,71.6,29.99,North,0,0.0,0.0,75,0.00,,,0.00,WUHU21623XXSP,2013-08-30 07:00:00,
2013-08-30 02:05:00,79.9,71.4,29.99,North,0,0.0,0.0,76,0.00,,,0.00,WUHU21623XXSP,2013-08-30 07:05:00,
2013-08-30 02:10:00,79.7,71.6,29.99,North,0,0.0,0.0,76,0.00,,,0.00,WUHU21623XXSP,2013-08-30 07:10:00,
2013-08-30 02:15:00,79.5,71.7,29.98,North,0,0.0,0.0,77,0.00,,,0.00,WUHU21623XXSP,2013-08-30 07:15:00,
2013-08-30 02:20:00,79.5,71.7,29.99,North,0,0.0,0.0,77,0.00,,,0.00,WUHU21623XXSP,2013-08-30 07:20:00,
2013-08-30 02:25:00,79.3,71.5,29.98,North,0,0.0,0.0,77,0.00,,,0.00,WUHU21623XXSP,2013-08-30 07:25:00,
2013-08-30 02:30:00,79.2,71.7,29.98,North,0,0.0,0.0,78,0.00,,,0.00,WUHU21623XXSP,2013-08-30 07:30:00,
2013-08-30 02:35:00,79.0,71.5,29.99,North,0,0.0,0.0,78,0.00,,,0.00,WUHU21623XXSP,2013-08-30 07:35:00,
2013-08-30 02:40:00,79.0,71.5,29.98,North,0,0.0,0.0,78,0.00,,,0.00,WUHU21623XXSP,2013-08-30 07:40:00,
2013-08-30 02:45:00,78.6,71.2,29.98,North,0,0.0,0.0,78,0.00,,,0.00,WUHU21623XXSP,2013-08-30 07:45:00,
2013-08-30 02:50:00,78.6,71.2,29.98,North,0,0.0,0.0,78,0.00,,,0.00,WUHU21623XXSP,2013-08-30 07:50:00,
2013-08-30 02:55:00,78.6,71.2,29.97,North,0,0.0,0.0,78,0.00,,,0.00,WUHU21623XXSP,2013-08-30 07:55:00,
2013-08-30 03:00:00,78.6,71.2,29.98,North,0,0.0,0.0,78,0.00,,,0.00,WUHU21623XXSP,2013-08-30 08:00:00,
2013-08-30 12:02:00,94.8,71.4,29.95,North,0,0.0,0.0,47,0.00,,,0.00,WUHU21623XXSP,2013-08-30 17:02:00,
2013-08-30 12:07:00,94.8,71.4,29.95,North,0,0.0,0.0,47,0.00,,,0.00,WUHU21623XXSP,2013-08-30 17:07:00,
2013-08-30 12:12:00,95.2,71.7,29.95,North,0,0.0,0.0,47,0.00,,,0.00,WUHU21623XXSP,2013-08-30 17:12:00,
2013-08-30 12:17:00,95.4,71.2,29.95,North,0,0.0,0.0,46,0.00,,,0.00,WUHU21623XXSP,2013-08-30 17:17:00,
2013-08-30 12:22:00,95.5,71.4,29.95,North,0,0.0,0.0,46,0.00,,,0.00,WUHU21623XXSP,2013-08-30 17:22:00,
2013-08-30 12:27:00,95.7,70.9,29.95,North,0,0.0,0.0,45,0.00,,,0.00,WUHU21623XXSP,2013-08-30 17:27:00,
2013-08-30 12:32:00,95.7,70.9,29.95,North,0,0.0,0.0,45,0.00,,,0.00,WUHU21623XXSP,2013-08-30 17:32:00,
2013-08-30 12:40:00,96.1,71.2,29.95,North,0,0.0,0.0,45,0.00,,,0.00,WUHU21623XXSP,2013-08-30 17:40:00,
2013-08-30 12:45:00,96.4,71.5,29.94,North,0,0.0,0.0,45,0.00,,,0.00,WUHU21623XXSP,2013-08-30 17:45:00,
2013-08-30 12:50:00,96.6,71.7,29.94,North,0,0.0,0.0,45,0.00,,,0.00,WUHU21623XXSP,2013-08-30 17:50:00,
2013-08-30 12:55:00,97.0,71.4,29.94,North,0,0.0,0.0,44,0.00,,,0.00,WUHU21623XXSP,2013-08-30 17:55:00,
2013-08-30 13:00:00,97.3,71.7,29.94,North,0,0.0,0.0,44,0.00,,,0.00,WUHU21623XXSP,2013-08-30 18:00:00,
2013-08-30 13:05:00,97.5,71.9,29.94,North,0,0.0,0.0,44,0.00,,,0.00,WUHU21623XXSP,2013-08-30 18:05:00,
2013-08-30 13:10:00,97.5,71.2,29.94,North,0,0.0,0.0,43,0.00,,,0.00,WUHU21623XXSP,2013-08-30 18:10:00,
2013-08-30 13:15:00,97.7,71.2,29.94,North,0,0.0,0.0,42,0.00,,,0.00,WUHU21623XXSP,2013-08-30 18:15:00,
2013-08-30 13:20:00,97.7,70.7,29.94,North,0,0.0,0.0,42,0.00,,,0.00,WUHU21623XXSP,2013-08-30 18:20:00,
2013-08-30 13:25:00,97.9,70.8,29.93,North,0,0.0,0.0,42,0.00,,,0.00,WUHU21623XXSP,2013-08-30 18:25:00,
2013-08-30 13:30:00,98.2,70.5,29.93,North,0,0.0,0.0,41,0.00,,,0.00,WUHU21623XXSP,2013-08-30 18:30:00,
2013-08-30 13:35:00,98.1,70.3,29.93,North,0,0.0,0.0,41,0.00,,,0.00,WUHU21623XXSP,2013-08-30 18:35:00,
2013-08-30 13:40:00,97.9,70.8,29.93,North,0,0.0,0.0,42,0.00,,,0.00,WUHU21623XXSP,2013-08-30 18:40:00,
2013-08-30 13:45:00,98.2,71.2,29.93,North,0,0.0,0.0,42,0.00,,,0.00,WUHU21623XXSP,2013-08-30 18:45:00,
2013-08-30 13:50:00,98.4,71.3,29.93,North,0,0.0,0.0,42,0.00,,,0.00,WUHU21623XXSP,2013-08-30 18:50:00,
2013-08-30 13:55:00,98.8,71.0,29.93,North,0,0.0,0.0,41,0.00,,,0.00,WUHU21623XXSP,2013-08-30 18:55:00,
2013-08-30 14:00:00,98.8,71.0,29.92,North,0,0.0,0.0,41,0.00,,,0.00,WUHU21623XXSP,2013-08-30 19:00:00,
2013-08-30 14:05:00,99.0,71.2,29.93,North,0,0.0,0.0,41,0.00,,,0.00,WUHU21623XXSP,2013-08-30 19:05:00,
2013-08-30 23:21:00,86.2,70.2,29.86,North,0,0.0,0.0,59,0.00,,,0.00,WUHU21623XXSP,2013-08-31 04:21:00,
2013-08-30 23:23:00,86.2,70.2,29.86,North,0,0.0,0.0,59,0.00,,,0.00,WUHU21623XXSP,2013-08-31 04:23:00,
2013-08-30 23:28:00,86.0,70.0,29.85,North,0,0.0,0.0,59,0.00,,,0.00,WUHU21623XXSP,2013-08-31 04:28:00,
2013-08-30 23:31:00,85.8,69.8,29.85,North,0,0.0,0.0,59,0.00,,,0.00,WUHU21623XXSP,2013-08-31 04:31:00,
2013-08-30 23:33:00,85.8,70.4,29.85,North,0,0.0,0.0,60,0.00,,,0.00,WUHU21623XXSP,2013-08-31 04:33:00,
2013-08-30 23:36:00,85.8,70.4,29.85,North,0,0.0,0.0,60,0.00,,,0.00,WUHU21623XXSP,2013-08-31 04:36:00,
2013-08-30 23:41:00,85.6,70.2,29.85,North,0,0.0,0.0,60,0.00,,,0.00,WUHU21623XXSP,2013-08-31 04:41:00,
2013-08-30 23:46:00,85.6,70.2,29.86,North,0,0.0,0.0,60,0.00,,,0.00,WUHU21623XXSP,2013-08-31 04:46:00,
2013-08-30 23:51:00,85.3,70.3,29.86,North,0,0.0,0.0,61,0.00,,,0.00,WUHU21623XXSP,2013-08-31 04:51:00,
2013-08-30 23:56:00,85.3,70.3,29.86,North,0,0.0,0.0,61,0.00,,,0.00,WUHU21623XXSP,2013-08-31 04:56:00,